Richmond, VA

3:16 PM EDT on September 26, 2017 (GMT -0400)
Richmond International

Weather History for KRIC - April, 2013

Change the Weather History Date:

Tuesday, April 2, 2013

  Actual Average Record
Temperature  
Mean Temperature 45 °F 54 °F  
Max Temperature 57 °F 66 °F 89 °F (1967)
Min Temperature 32 °F 42 °F 24 °F (1923)
Degree Days  
Heating Degree Days 20 11  
Month to date heating degree days 26 23  
Since 1 July heating degree days 3418 3475  
Cooling Degree Days 0 1  
Month to date cooling degree days 0 1  
Year to date cooling degree days 1 7  
Moisture  
Dew Point 17 °F    
Average Humidity 46    
Maximum Humidity 75    
Minimum Humidity 16    
Precipitation  
Precipitation 0.00 in 0.12 in 0.99 in (2005)
Month to date precipitation T 0.24  
Year to date precipitation 13.50 10.08  
Snow  
Snow 0.00 in 0.00 in 0.00 in (2002)
Month to date snowfall 0.0 0.0  
Since 1 July snowfall 8.6 10.2  
Snow Depth 0.00 in    
Sea Level Pressure  
Sea Level Pressure 30.10 in    
Wind  
Wind Speed 7 mph (WNW)    
Max Wind Speed 20 mph    
Max Gust Speed 25 mph    
Visibility 10 miles    
Events      
T = Trace of Precipitation, MM = Missing Value Source: NWS Daily Summary

Daily Weather History Graph

Daily Weather History Graph

Search for Another Location

Airport or City:

Trip Planner

Search our weather history database for the weather conditions in past years. The results will help you decide how hot, cold, wet, or windy it might be!

Date:

Astronomy

Apr. 02, 2013 Rise Set
Actual Time 6:52 AM EDT 7:33 PM EDT
Civil Twilight 6:26 AM EDT 7:59 PM EDT
Nautical Twilight 5:55 AM EDT 8:30 PM EDT
Astronomical Twilight 5:23 AM EDT 9:02 PM EDT
Moon 1:31 AM EDT (4/2) 11:46 AM EDT (4/2)
Length of Visible Light 13h 33m
Length of Day
12h 40m
Waning Gibbous, 56% of the Moon is Illuminated
Apr 2
Waning Gibbous
Apr 3
Last Quarter
Apr 10
New
Apr 18
First Quarter
Apr 25
Full

Hourly Weather History & Observations

Time (EDT) Temp. Windchill Dew Point Humidity Pressure Visibility Wind Dir Wind Speed Gust Speed Precip Events Conditions
12:54 AM 46.0 °F 41.0 °F 24.1 °F 42% 30.03 in 10.0 mi NW 10.4 mph - N/A   Partly Cloudy
1:54 AM 45.0 °F 39.7 °F 21.0 °F 39% 30.03 in 10.0 mi NW 10.4 mph - N/A   Partly Cloudy
2:54 AM 43.0 °F 37.7 °F 21.0 °F 42% 30.03 in 10.0 mi NNW 9.2 mph - N/A   Partly Cloudy
3:54 AM 39.9 °F 36.7 °F 21.9 °F 49% 30.05 in 10.0 mi North 4.6 mph - N/A   Partly Cloudy
4:54 AM 41.0 °F - 21.0 °F 45% 30.06 in 10.0 mi Calm Calm - N/A   Clear
5:54 AM 36.0 °F - 24.1 °F 62% 30.09 in 10.0 mi Calm Calm - N/A   Clear
6:54 AM 32.0 °F - 24.1 °F 73% 30.11 in 10.0 mi Calm Calm - N/A   Clear
7:54 AM 36.0 °F - 28.0 °F 73% 30.15 in 10.0 mi Calm Calm - N/A   Clear
8:54 AM 46.0 °F 43.1 °F 19.9 °F 35% 30.16 in 10.0 mi NW 5.8 mph - N/A   Clear
9:54 AM 50.0 °F - 15.1 °F 25% 30.15 in 10.0 mi West 5.8 mph - N/A   Clear
10:54 AM 50.7 °F - 10.4 °F 20% 30.14 in 10.0 mi West 10.4 mph - N/A   Scattered Clouds
11:54 AM 51.1 °F - 17.1 °F 26% 30.14 in 10.0 mi West 8.1 mph 20.7 mph N/A   Scattered Clouds
12:54 PM 54.0 °F - 17.1 °F 23% 30.12 in 10.0 mi WNW 16.1 mph 23.0 mph N/A   Scattered Clouds
1:54 PM 53.1 °F - 15.1 °F 22% 30.11 in 10.0 mi West 9.2 mph 20.7 mph N/A   Partly Cloudy
2:54 PM 54.0 °F - 14.0 °F 21% 30.08 in 10.0 mi West 10.4 mph - N/A   Partly Cloudy
3:17 PM 55.4 °F - 15.8 °F 21% 30.06 in 10.0 mi West 9.2 mph - N/A   Partly Cloudy
3:54 PM 55.9 °F - 15.1 °F 20% 30.06 in 10.0 mi WNW 13.8 mph 20.7 mph N/A   Partly Cloudy
4:54 PM 55.9 °F - 12.0 °F 18% 30.06 in 10.0 mi West 15.0 mph 20.7 mph N/A   Partly Cloudy
5:54 PM 55.9 °F - 10.0 °F 16% 30.08 in 10.0 mi West 12.7 mph - N/A   Partly Cloudy
6:54 PM 54.0 °F - 9.0 °F 17% 30.09 in 10.0 mi West 9.2 mph - N/A   Partly Cloudy
7:54 PM 52.0 °F - 10.0 °F 19% 30.10 in 10.0 mi WNW 4.6 mph - N/A   Partly Cloudy
8:54 PM 46.0 °F - 19.0 °F 34% 30.13 in 10.0 mi Calm Calm - N/A   Clear
9:54 PM 45.0 °F 41.8 °F 17.1 °F 33% 30.15 in 10.0 mi North 5.8 mph - N/A   Clear
10:54 PM 42.1 °F 37.7 °F 15.1 °F 34% 30.18 in 10.0 mi NE 6.9 mph - N/A   Clear
11:54 PM 41.0 °F 37.1 °F 14.0 °F 33% 30.19 in 10.0 mi ENE 5.8 mph - N/A   Clear